Torna al catalogo

YAOGAN-36 01C

AttivoMilitareVLEO
NORAD 53947·PAYLOAD·🇨🇳 China

Lanciato Sep 26, 2022 da Xichang Satellite Launch Center

Loading…

Prossimi Passaggi (prossime 24 ore)

TLE

AggiornatoSource: Space-Track

Epoca: Sep 14, 2026, 19:05 UTC

1 53947U 22120E   26257.79520847  .00020042  00000-0  47796-3 0  9993
2 53947  35.0043  20.4938 0003448 269.6890  90.3435 15.40637229221615

Traccia YAOGAN-36 01C in tempo reale con AllMySat

Download on the App Store